Location: Izdebno
(52.6670°N, 16.2170°E)
Time: 04:27:30
(UTC+02:00)

Transit 2A - Pass Details

Date: 27 February 2024
Orbit: 596 x 956 km, 66.7° (Epoch: 21 April)

Event Time Altitude Azimuth Distance (km) Brightness Sun altitude
Rises 03:09:35 0° 320° (NW) 2,960 - -32.7°
Reaches altitude 10° 03:11:47 10° 322° (NW) 2,087 - -32.4°
Maximum altitude 03:16:31 82° 50° (NE) 720 - -31.8°
Exits shadow 03:21:13 13° 138° (SE) 2,091 8.3 -31.2°
Drops below altitude 10° 03:21:44 10° 138° (SE) 2,296 8.6 -31.1°
Sets 03:24:16 0° 140° (SE) 3,280 9.4 -30.8°
